Helicity
182 174 210 82 62 64 56 57 57 95 -16 -3 63 108 207 205 93 74 39 61 125 131 66 48 41 -15 -15 27 68 54 27 -10 3 14 -1 -22 -12 -15 -13 15 17 31 10 -12
215 128 75 106 65 76 33 49 71 57 -1 -72 -95 -61 75 118 72 96 45 77 122 121 127 118 32 7 8 34 55 7 36 7 3 22 16 5 -10 -0 6 28 15 16 19 3
122 69 51 86 101 83 93 62 -9 10 12 15 -9 -47 1 47 77 -9 21 110 99 152 214 179 133 16 3 46 77 5 -8 -7 -11 -5 -1 14 37 29 11 25 27 20 11 -3
35 36 119 82 77 123 99 -1 -16 33 73 21 29 12 -25 30 136 102 59 109 99 105 183 210 156 109 42 75 41 16 -7 -1 2 -21 -16 -8 12 15 11 12 6 2 -4 7
74 79 85 90 50 115 56 81 13 -3 49 56 23 23 14 39 130 101 109 113 174 185 159 202 162 158 72 100 79 37 25 22 14 -7 -17 -14 -10 2 6 -1 3 3 -1 -6
136 59 44 77 72 95 210 129 90 13 -5 40 11 -2 5 21 94 72 85 97 181 236 194 125 131 164 90 48 76 54 18 39 20 7 -6 -18 -12 -8 -6 -11 -16 -11 -3 3
68 53 58 111 254 283 162 84 27 24 26 18 -56 18 -25 35 26 135 102 127 174 181 218 160 137 123 113 75 47 98 45 31 35 41 22 21 5 -4 -7 -10 -17 -12 -5 -0
100 96 43 16 58 22 40 12 -9 -22 74 12 -30 -18 -43 -27 13 32 -39 87 126 219 241 183 137 120 123 90 51 101 109 55 47 42 35 16 11 -1 -4 -10 -16 -7 -8 -10
102 98 -5 9 41 78 35 17 12 21 17 -1 -30 -60 -52 17 89 10 41 171 218 223 255 150 119 111 123 85 98 94 97 44 39 8 42 46 22 3 -12 -0 -2 -4 -5 -12
66 55 34 13 72 51 44 35 37 42 -5 -13 7 3 3 -44 -47 36 89 224 349 302 309 214 120 64 91 96 117 103 85 81 69 31 4 18 16 -1 -7 19 6 7 3 -4
23 49 68 34 67 45 65 68 48 22 19 34 3 21 -21 -12 102 124 71 183 318 372 336 178 102 96 110 119 134 136 88 83 84 54 54 29 4 25 47 53 -8 -5 13 24
70 32 65 63 146 89 123 80 55 31 39 32 5 18 94 -47 62 92 99 74 184 253 285 125 89 158 126 136 126 118 117 124 99 94 75 68 52 62 67 44 35 42 33 32
36 44 112 174 194 199 126 145 154 118 78 41 1 29 -1 83 74 41 69 48 -14 169 159 90 100 129 126 149 139 135 160 128 145 141 113 101 76 61 44 46 49 56 37 28
24 53 83 123 119 53 83 128 110 93 77 47 37 11 83 175 100 87 79 31 46 28 41 77 126 149 135 165 171 184 200 162 193 166 125 105 86 68 50 52 58 60 63 50
52 103 108 63 59 95 36 48 114 74 80 61 57 -11 30 134 139 30 8 -6 9 46 74 76 123 192 174 191 211 189 227 223 201 162 135 110 109 86 75 67 71 62 72 84
67 101 103 177 172 65 92 92 48 60 70 51 35 56 20 95 143 91 62 70 77 144 76 125 11 136 190 195 235 260 260 261 242 206 176 153 137 119 94 76 87 78 60 70
43 71 152 162 119 135 126 121 25 -25 10 10 40 25 71 133 163 159 109 73 118 170 123 72 112 123 159 206 212 273 321 309 292 294 264 187 176 137 100 53 67 47 48 89
41 59 95 118 180 147 94 55 55 16 -18 -46 -33 -14 5 76 102 130 127 78 51 69 88 89 117 116 140 234 266 316 299 270 181 165 176 195 155 123 107 83 93 74 27 83
33 46 85 91 101 122 146 80 65 60 61 37 2 -27 -11 -12 32 64 99 103 73 68 91 118 123 161 132 125 223 275 263 245 276 57 150 124 111 61 61 70 59 89 140 208
74 90 74 83 75 48 49 61 53 51 66 40 64 39 44 5 138 46 23 66 62 77 80 98 92 113 186 142 87 35 244 189 181 193 162 101 75 108 80 63 67 93 128 182
69 63 76 86 68 54 57 65 72 74 18 45 34 86 59 84 65 46 33 47 51 64 79 84 110 134 135 140 110 133 97 112 133 138 187 241 173 134 129 111 105 94 83 79
46 45 37 60 79 61 81 80 54 24 44 30 37 40 51 41 84 109 91 59 61 72 70 75 100 100 132 198 265 224 172 163 234 269 191 183 147 109 110 98 121 96 80 83
39 31 38 32 19 17 17 40 48 36 43 29 30 35 31 37 44 78 59 62 77 72 88 79 64 97 99 131 186 222 168 162 161 182 192 148 185 226 174 160 164 105 89 99
38 49 64 58 19 20 39 78 49 5 40 26 31 30 19 8 12 10 12 54 38 32 79 96 113 131 133 123 159 157 148 176 188 160 169 202 199 236 246 269 206 116 85 88
61 106 91 73 49 54 38 67 10 24 37 34 15 14 20 -3 -38 -53 -51 -46 -25 20 37 62 78 107 147 149 138 120 130 165 190 191 175 179 164 169 180 233 245 195 163 108
103 108 135 71 48 72 60 82 94 78 43 10 15 14 11 16 -2 -30 -47 -35 -8 19 51 58 87 124 138 130 127 136 140 129 131 158 168 166 163 171 145 137 182 301 301 288
Wind_Speed
34 39 39 43 35 32 27 28 26 33 33 30 44 45 45 32 58 35 43 14 34 38 48 48 49 55 55 52 52 58 58 61 62 58 57 55 53 54 49 47 48 51 47 44
37 50 46 44 43 36 29 25 29 34 33 35 40 47 56 47 49 61 53 33 28 33 32 41 51 53 58 54 51 55 61 62 59 57 56 54 53 48 47 47 49 49 48 44
39 39 39 44 47 37 34 36 32 38 36 41 41 51 56 58 56 68 61 55 20 40 37 41 48 53 59 57 53 49 61 64 60 58 57 50 47 45 46 46 44 48 49 45
38 45 46 51 59 43 50 45 33 19 29 47 36 43 45 47 58 55 62 55 28 26 33 39 37 52 59 57 53 47 53 61 62 61 58 56 55 53 49 48 47 48 48 46
34 36 39 51 56 42 45 31 37 33 30 35 37 43 43 37 71 78 72 58 38 32 30 37 39 47 55 53 51 53 49 51 61 61 59 58 55 53 49 48 48 48 46 45
51 45 41 44 40 32 18 27 22 28 33 45 44 44 44 42 66 77 71 67 50 33 31 31 35 25 39 51 43 48 53 47 50 56 60 57 55 53 51 51 50 49 47 46
35 34 29 16 15 22 35 37 39 41 41 43 39 38 50 38 35 59 76 68 48 37 36 29 26 24 20 41 44 38 52 49 46 40 43 55 58 54 52 51 50 47 47 47
33 33 25 25 24 26 33 43 40 41 43 39 37 43 42 48 39 19 41 68 39 47 38 36 30 29 26 35 41 37 46 50 50 52 42 44 42 55 56 53 51 44 46 48
30 32 39 32 26 13 42 51 39 32 35 42 40 42 50 32 5 46 57 49 51 58 44 39 34 29 24 24 38 37 41 47 45 57 47 44 38 49 55 55 54 52 51 48
32 34 27 33 33 39 34 30 42 40 43 47 42 40 39 33 30 35 31 33 54 51 45 40 39 33 33 25 32 20 29 39 37 45 58 46 44 55 57 53 51 54 53 54
30 32 34 27 37 39 35 44 39 34 35 37 36 35 39 40 17 17 13 19 46 53 46 54 43 50 40 47 45 21 22 27 17 14 16 26 39 20 18 18 56 54 53 46
31 31 34 24 29 13 20 34 46 49 48 41 42 37 42 39 16 25 11 4 31 44 45 60 46 51 41 43 42 26 20 20 21 16 10 12 13 25 19 25 45 35 12 37
33 32 39 29 26 26 27 35 34 34 38 47 50 47 58 41 28 21 25 21 22 34 43 70 52 43 45 40 41 28 24 24 21 16 13 16 23 35 41 29 21 24 31 32
27 26 24 32 35 31 29 32 32 36 48 51 52 55 53 44 32 31 22 22 27 37 71 67 60 62 54 43 39 37 37 40 33 39 18 19 25 25 28 38 36 31 24 29
27 24 19 18 20 20 24 30 31 32 36 47 46 45 48 44 36 32 29 14 12 23 49 65 65 53 47 52 44 45 38 37 28 26 25 25 30 38 37 38 36 37 33 30
32 24 18 24 24 22 29 33 33 35 36 38 37 45 44 40 34 31 31 32 23 6 29 18 52 57 58 58 51 48 37 34 32 30 28 28 31 30 37 39 40 42 46 46
31 28 30 32 38 43 46 41 35 32 36 39 42 39 37 32 30 31 31 33 32 30 32 37 46 53 52 50 53 45 40 39 29 27 32 30 27 34 33 37 40 44 47 45
26 28 31 37 42 59 40 36 33 32 34 32 31 32 30 28 29 31 34 33 32 31 29 34 37 26 37 47 48 43 38 43 38 28 31 36 40 41 46 49 48 45 47 46
31 26 32 35 37 40 43 45 44 46 47 41 40 35 36 30 34 38 37 36 35 35 35 33 34 42 35 32 39 47 50 40 45 49 34 39 39 45 42 39 42 46 43 51
32 30 28 30 38 43 38 33 38 40 59 42 43 42 46 39 45 40 38 38 37 37 39 37 35 31 25 18 28 48 41 38 37 39 39 40 29 34 31 34 36 37 36 38
32 33 31 32 36 37 34 32 31 45 48 42 45 47 43 48 45 35 35 37 37 37 38 37 35 35 39 36 26 34 30 48 42 31 32 27 29 23 24 24 21 21 23 24
28 28 30 31 37 42 26 30 36 36 36 38 39 40 39 37 36 34 36 38 40 39 37 37 35 33 33 27 19 19 26 27 24 14 30 18 23 14 12 13 17 22 22 22
27 24 27 27 30 28 26 28 24 25 29 34 37 38 34 34 35 37 38 38 39 38 37 35 33 32 29 25 18 20 24 17 21 15 6 13 17 15 13 17 14 12 22 16
25 23 28 29 30 27 23 19 19 23 27 33 33 35 36 34 32 32 35 38 36 33 33 32 31 30 29 26 21 19 16 14 15 17 15 13 12 15 15 15 16 11 8 12
24 19 25 34 32 30 25 18 15 17 25 30 34 33 31 31 33 34 33 33 31 29 28 27 25 24 26 27 25 22 19 16 17 18 18 19 20 18 17 20 24 23 26 26
20 22 16 25 10 12 9 10 10 13 20 27 29 30 29 31 29 29 27 24 25 27 25 23 21 21 21 21 22 22 22 18 16 19 20 20 21 23 22 22 24 28 28 26
Wind_Direction
252 251 248 250 263 275 288 294 283 270 283 304 254 255 243 254 226 232 237 158 144 145 147 144 141 149 147 141 137 146 139 143 145 164 168 171 175 176 179 180 172 165 179 178
258 250 249 251 255 268 276 282 283 282 285 281 260 256 250 253 246 228 236 238 158 147 142 142 148 149 154 145 138 149 154 152 153 151 161 175 176 183 185 181 173 171 179 176
258 258 256 252 249 256 263 263 274 283 281 277 276 267 251 249 250 229 237 235 198 157 152 147 149 154 159 153 146 137 150 162 166 169 166 186 194 198 190 188 193 183 176 177
264 258 255 250 243 245 254 260 265 318 287 262 281 272 264 252 237 240 236 238 223 196 164 150 148 153 159 158 152 137 144 162 173 168 173 171 176 178 189 188 185 177 167 169
260 260 258 250 243 246 257 267 257 288 298 284 278 269 270 265 236 233 234 239 234 182 177 159 154 152 156 153 150 149 144 144 164 173 179 177 177 183 194 199 198 190 179 180
254 258 262 254 259 250 254 254 271 288 292 275 270 264 276 277 246 236 236 232 235 203 197 176 161 152 147 152 142 146 151 146 150 162 179 175 176 175 190 194 191 194 198 197
261 262 270 267 242 242 242 238 259 270 269 270 268 283 283 290 276 238 235 236 236 226 206 201 182 170 161 150 149 143 157 153 151 146 151 172 182 178 185 189 184 174 188 190
257 253 252 253 246 239 232 249 257 258 258 271 277 275 288 277 264 247 246 234 229 235 209 207 204 176 167 155 154 148 156 161 160 163 155 160 161 182 197 203 188 170 177 188
257 257 249 246 251 246 247 246 256 275 284 266 278 281 282 309 124 256 254 226 217 229 217 203 203 207 194 175 158 156 156 162 162 172 163 161 153 171 192 204 202 204 210 194
264 261 268 255 259 259 262 257 253 265 263 258 275 280 273 291 279 283 265 227 204 215 222 218 216 197 225 190 166 173 161 161 159 165 178 167 167 186 195 192 186 217 228 226
273 269 269 271 261 254 266 255 265 266 271 269 270 272 285 279 337 352 298 231 207 211 220 228 228 234 234 238 240 202 178 163 165 171 170 164 169 164 281 284 212 205 244 258
293 276 267 271 276 297 290 280 260 255 258 263 263 276 308 268 12 84 35 132 197 210 207 232 229 236 234 237 240 229 218 208 179 178 199 192 261 272 271 281 263 281 311 274
292 290 258 264 273 295 295 289 279 270 271 260 259 263 323 325 312 17 80 110 231 195 218 234 239 230 237 235 236 221 224 223 244 230 228 257 266 267 267 277 285 289 284 287
304 306 280 262 264 279 286 298 297 280 265 265 267 284 310 320 326 326 3 103 140 239 229 236 238 237 240 240 235 238 249 249 254 255 234 257 266 265 271 274 276 283 292 291
319 304 300 287 306 309 298 296 306 297 289 273 278 291 302 310 311 327 324 356 108 147 254 249 242 244 242 242 244 247 251 246 245 245 246 260 266 266 271 272 276 279 283 287
310 307 304 289 293 300 293 301 301 300 304 299 292 294 308 308 301 310 317 310 312 249 164 174 251 248 246 243 245 245 247 245 244 246 251 264 261 268 269 272 277 280 281 278
311 301 293 281 283 278 278 288 301 305 305 298 288 297 311 317 317 312 311 325 321 309 283 273 255 248 248 247 247 247 253 251 243 246 253 260 266 266 271 276 279 282 284 285
324 318 303 289 287 268 284 293 301 303 304 309 308 306 318 317 317 315 318 325 324 329 307 286 281 285 264 259 257 254 250 255 262 261 250 261 266 267 273 274 279 289 286 286
320 329 308 296 295 292 283 282 285 285 286 297 297 296 300 310 303 300 310 319 319 315 316 315 304 281 274 270 274 260 257 261 256 259 261 266 269 267 275 280 285 289 297 284
326 325 314 306 292 286 296 300 295 292 278 291 294 293 289 294 292 294 302 313 314 316 312 316 301 305 305 307 288 279 265 256 255 261 261 254 266 266 278 285 285 293 297 298
330 321 309 300 297 300 304 309 313 286 286 290 290 291 294 288 290 304 305 309 317 318 317 314 309 301 292 299 295 297 310 275 269 263 253 247 256 266 286 291 305 306 309 317
333 327 313 308 299 293 317 315 299 307 311 302 297 298 301 301 296 300 301 308 311 315 316 318 313 313 314 316 310 302 307 308 297 284 250 258 258 287 323 300 300 293 299 305
329 333 325 323 316 331 331 321 340 337 338 319 306 303 312 308 301 298 300 306 311 315 316 315 316 316 327 322 313 308 311 328 304 339 14 311 306 307 317 294 318 332 300 317
328 330 323 323 320 326 338 341 352 346 353 343 343 317 305 306 310 312 307 307 313 311 314 316 320 314 312 318 333 334 345 357 351 349 3 7 357 324 339 329 312 326 351 324
332 338 326 313 313 317 319 327 347 354 351 340 335 338 323 317 313 314 316 313 316 318 320 317 319 323 321 320 323 333 343 348 337 327 330 328 319 329 331 321 311 303 298 298
335 331 340 330 24 18 60 14 25 358 348 334 343 342 337 329 327 320 326 334 329 318 320 327 322 329 331 335 338 343 337 352 348 336 329 320 316 314 313 313 308 313 311 308